DW3371 Weather Reports


Display with metric or nautical units.
time (UTC)temp
F
wind
direction
speed
MPH
gust
MPH
rain 1hr
in
rain 24hr
in
rain mn
in
humidity
%
barometer
mb
20260905012822 57 287 6.0 11.0 0.00 0.44 0.00 81 1016.1
20260905005822 58 243 6.0 14.0 0.00 0.44 0.00 81 1015.9
20260905002829 58 233 5.0 14.0 0.00 0.44 0.00 80 1015.8
20260904235824 58 236 5.0 12.0 0.00 0.44 0.00 79 1015.5
20260904225825 59 240 6.0 14.0 0.00 0.44 0.44 79 1015.5
20260904222830 58 254 3.0 10.0 0.00 0.44 0.44 79 1015.2
20260904215819 60 229 5.0 11.0 0.00 0.44 0.44 77 1015.2
20260904212821 60 0 7.0 14.0 0.00 0.44 0.44 76 1015.1
20260904205827 60 0 6.0 12.0 0.00 0.44 0.44 75 1014.8
20260904202817 61 227 6.0 12.0 0.00 0.44 0.44 74 1014.8
20260904195814 61 242 4.0 11.0 0.00 0.44 0.44 73 1014.6
20260904192820 62 268 6.0 12.0 0.00 0.44 0.44 72 1013.9
20260904185809 63 259 7.0 14.0 0.00 0.44 0.44 70 1013.7
20260904182808 64 289 6.0 16.0 0.00 0.44 0.44 68 1013.2
20260904175813 66 243 9.0 17.0 0.00 0.44 0.44 66 1012.9
20260904172807 66 275 8.0 18.0 0.00 0.44 0.44 66 1012.5
20260904165808 66 238 6.0 15.0 0.00 0.44 0.44 66 1012.2
20260904162814 67 265 7.0 14.0 0.00 0.44 0.44 65 1012.0
20260904155807 67 329 9.0 18.0 0.00 0.44 0.44 64 1011.6
20260904152807 67 0 11.0 20.0 0.00 0.44 0.44 62 1011.5
20260904142815 67 246 8.0 19.0 0.00 0.44 0.44 63 1010.9
20260904125808 67 309 12.0 23.0 0.00 0.44 0.44 64 1010.4
20260904122807 66 0 12.0 20.0 0.00 0.44 0.44 66 1010.2
20260904115815 65 282 12.0 22.0 0.00 0.44 0.44 70 1010.0
20260904102807 65 0 12.0 23.0 0.00 0.44 0.44 80 1009.0
20260904095807 64 300 11.0 24.0 0.00 0.44 0.44 86 1008.6
20260904082806 63 284 11.0 22.0 0.02 0.44 0.44 91 1007.9
20260904072803 62 279 12.0 32.0 0.08 0.43 0.43 90 1006.9
20260904062802 64 0 12.0 28.0 0.35 0.35 0.35 90 1005.8
20260904055804 68 245 8.0 20.0 0.02 0.02 0.02 88 1005.5
20260904052804 69 252 11.0 23.0 0.00 0.00 0.00 85 1005.5
20260904045811 70 239 13.0 27.0 0.00 0.00 0.00 80 1005.4
20260904042807 70 265 13.0 30.0 0.00 0.00 0.00 79 1005.3
20260904035803 70 251 13.0 26.0 0.00 0.00 0.00 79 1005.6
20260904032803 69 0 11.0 22.0 0.00 0.00 0.00 79 1005.8
20260904022803 69 208 12.0 29.0 0.00 0.00 0.00 78 1007.0
20260904015804 69 247 9.0 21.0 0.00 0.00 0.00 79 1007.5